Terminal Aerodrome Forecast
Issued by NWS Grand Forks, ND

Home | Current Version | Previous Version | Graphics & Text | Print | Product List | Glossary On
Versions: 1 2 3 4 5 6 7 8 9 10 11 12 13 14 15 16 17 18 19 20 21 22 23 24 25 26
794
FTUS43 KFGF 071546 AAB
TAFGFK
TAF AMD
KGFK 071546Z 0716/0812 30025G33KT 1/2SM -SN BLSN OVC007
      TEMPO 0716/0718 2SM -SN BLSN BKN015
     FM071800 33030G40KT 1/4SM SN BLSN BKN008
     FM080400 34025G35KT 3/4SM BLSN BKN025=

USA.gov is the U.S. government's official web portal to all federal, state and local government web resources and services.